User: anonymous   Login
Location: Vancouver
(49.2500°N, 123.1330°W)
Time: 16:04:26
(UTC-07:00)
Language:

Cosmos 1864 Rocket - Orbit

View from above orbital plane
View from above orbital plane
View from above satellite
View from above satellite

Ground track
Ground track

The orbit data is extracted from the following two-line orbital elements,

1 18161U 87057B   14294.01652940  .00000012  00000-0 -33688-5 0  5916
2 18161 082.9343 073.8354 0032215 147.0762 351.3711 13.76860352350716
Epoch (UTC): 21 October 2014 00:23:48
Eccentricity: 0.0032215
inclination: 82.9343°
perigee height: 951 km
apogee height: 999 km
right ascension of ascending node: 73.8354°
argument of perigee: 147.0762°
revolutions per day: 13.76860352
mean anomaly at epoch: 351.3711°
orbit number at epoch: 35071

The dashed part of the orbit path shows where the satellite is in the earth's shadow,  

DLR